• Processing (Info)

  • MPEC 2019-P11 : 2019 OW3

    The following Minor Planet Electronic Circular may be linked-to from your own Web pages, but must not otherwise be redistributed electronically.

    A form allowing access to any MPEC is at the bottom of this page.


    Read MPEC 2019-P10 Read MPEC 2019-P12


    M.P.E.C. 2019-P11                                Issued 2019 August 1, 02:48 UT  
    
         The Minor Planet Electronic Circulars contain information on unusual
             minor planets and routine data on comets.  They are published
        on behalf of Division F of the International Astronomical Union by the
              Minor Planet Center, Smithsonian Astrophysical Observatory,
                              Cambridge, MA 02138, U.S.A.
    
                 Prepared using the Tamkin Foundation Computer Network
    
                                  MPC@CFA.HARVARD.EDU
                URL https://www.minorplanetcenter.net/    ISSN 1523-6714
    
                                    2019 OW3                                 
    
    
    Observations:
         K19O03W* C2019 07 29.53169800 27 27.15 -39 25 08.9          18.34cVEP011T05
         K19O03W  C2019 07 29.53485700 27 20.77 -39 24 40.4          18.20cVEP011T05
         K19O03W  C2019 07 29.58938400 25 29.92 -39 16 08.8          18.41cVEP011T05
         K19O03W  C2019 07 29.59580000 25 16.91 -39 15 07.5          18.42cVEP011T05
         K19O03W  C2019 07 30.57562823 55 25.23 -36 30 11.2          17.97cVEP011T05
         K19O03W  C2019 07 30.57608523 55 24.37 -36 30 06.2          18.41cVEP011T05
         K19O03W  C2019 07 30.57654223 55 23.62 -36 30 01.4          18.41cVEP011T05
         K19O03W  C2019 07 30.57699923 55 22.80 -36 29 56.6          18.55cVEP011T05
         K19O03W  C2019 07 30.57745723 55 22.02 -36 29 52.1          18.44cVEP011T05
         K19O03W  C2019 07 30.57791523 55 21.24 -36 29 47.8          18.46cVEP011T05
         K19O03W KC2019 07 31.08246 23 41 40.56 -34 59 10.2          18.2 GVEP011L29
         K19O03W KC2019 07 31.08362 23 41 38.66 -34 58 57.7          18.2 GVEP011L29
         K19O03W KC2019 07 31.08477 23 41 36.79 -34 58 45.3          18.2 GVEP011L29
         K19O03W KC2019 07 31.08594 23 41 34.91 -34 58 32.9          18.1 GVEP011L29
         K19O03W  C2019 07 31.59427723 28 53.46 -33 28 41.1          17.57oVEP011T08
         K19O03W  C2019 07 31.60202423 28 42.03 -33 27 17.6          17.85oVEP011T08
         K19O03W  C2019 07 31.60340623 28 39.96 -33 27 02.3          17.93oVEP011T08
         K19O03W  C2019 07 31.60715323 28 34.47 -33 26 21.8          17.90oVEP011T08
         K19O03W  C2019 07 31.61409723 28 24.20 -33 25 06.3          18.03oVEP011T08
         K19O03W  C2019 07 31.62347723 28 10.38 -33 23 23.9          17.85oVEP011T08
    
    Observer details:
    L29 Drebach-South Observatory, Windhoek.  Observer G. Lehmann.  
        0.4-m f/3.6 reflector + CCD.
    T05 ATLAS-HKO, Haleakala.  Observers L. Denneau, J. Tonry, A. Heinze,
        H. Weiland, H. Flewelling.  Measurers L. Denneau, J. Tonry, A. Heinze,
        H. Weiland, H. Flewelling, B. Stalder, A. Fitzsimmons, D. Young,
        N. Erasmus.  0.5-m reflector + CCD.
    T08 ATLAS-MLO, Mauna Loa.  Observers L. Denneau, J. Tonry, A. Heinze,
        H. Weiland, H. Flewelling.  Measurers L. Denneau, J. Tonry, A. Heinze,
        H. Weiland, H. Flewelling, B. Stalder, A. Fitzsimmons, D. Young,
        N. Erasmus.  0.5-m reflector + CCD.
    
    Orbital elements:
    2019 OW3                                                 Earth MOID = 0.0579 AU
    Epoch 2019 Apr. 27.0 TT = JDT 2458600.5                 MPC
    M 341.09205              (2000.0)            P               Q
    n   0.50806206     Peri.  268.44091     -0.67792262     +0.71463660
    a   1.5554577      Node   317.12307     -0.53244872     -0.63900193
    e   0.5197098      Incl.   14.67547     -0.50687206     -0.28455417
    P   1.94           H   22.1           G   0.15           U   8
    Residuals in seconds of arc
    190729 T05  0.3-  0.4+    190730 T05  0.1-  0.1+    190731 T08  0.5-  0.3+
    190729 T05  0.3+  0.3-    190730 T05  0.2+  0.2-    190731 T08  0.1+  0.2-
    190729 T05  0.0   0.1-    190730 T05  0.5+  0.7-    190731 T08  0.2-  0.1+
    190729 T05  0.1-  0.1+    190731 L29  0.1+  0.0     190731 T08  0.4+  0.1-
    190730 T05  0.2+  0.0     190731 L29  0.2-  0.1+    190731 T08  0.2+  0.1-
    190730 T05  0.5-  0.2+    190731 L29  0.4-  0.2+    190731 T08  0.3+  0.2+
    190730 T05  0.1+  0.1+    190731 L29  0.3-  0.0
    
    Ephemeris:
    2019 OW3                 a,e,i = 1.56, 0.52, 15                  q = 0.7471
    Date    TT    R. A. (2000) Decl.     Delta      r    Elong.  Phase     V
    2019 07 02    07 22 53.3 -15 44 05   0.2372  0.8492    40.1   129.5    24.3
    ...
    2019 07 17    06 11 50.7 -30 30 45   0.1150  0.9573    56.3   118.0    22.0
    ...
    2019 07 25    03 20 48.9 -43 58 23   0.07273 1.0216    92.5    83.4    19.4
    ...
    2019 07 31    23 43 51.4 -35 13 38   0.07620 1.0713   135.9    41.3    18.3
    2019 08 01    23 19 36.1 -32 15 04   0.08031 1.0796   142.1    35.3    18.2
    2019 08 02    22 59 11.5 -29 21 17   0.08521 1.0880   147.7    29.9    18.2
    ...
    2019 08 08    21 47 55.4 -16 24 23   0.1256  1.1382   170.8     8.2    18.4
    ...
    2019 08 16    21 10 58.2 -08 16 19   0.1945  1.2052   170.9     7.6    19.5
    ...
    2019 08 31    20 49 22.0 -02 58 41   0.3470  1.3284   153.1    20.1    21.4
    
    A. U. Tomatic                (C) Copyright 2019 MPC           M.P.E.C. 2019-P11
    


    Read MPEC 2019-P10 Read MPEC 2019-P12


    MPEC number:

    Enter an MPEC number in one of the following forms:

    • 1997-B01 (the full form)
    • J97B01 (the packed version of the full form)
    • B01 (the abbreviated form)